{"data":{"norad_id":62229,"intl_designator":"2024-231M","name":"STARLINK-11485 [DTC]","alt_names":[],"object_type":"PAYLOAD","status":"ACTIVE","operator":null,"country":"US","launch_date":"2024-12-05","launch_site_code":"AFWTR","launch_vehicle":null,"mission":null,"orbit_class":"UNKNOWN","rcs_meters":null,"size_class":null,"mass_kg":null,"dimensions":null,"purposes":["comms"],"wikipedia_slug":null,"has_3d_model":false,"image_url":null,"decayed_at":null,"tle_current":{"epoch":"2026-09-21T03:49:29.543808Z","epoch_age_seconds":120745,"freshness":"FRESH","line1":"1 62229U 24231M   26264.15936972  .00114433  00000+0  93565-3 0  9991","line2":"2 62229  53.1575 217.5662 0001106  83.4309 276.6835 15.69729817104112","mean_motion":15.69729817,"eccentricity":0.0001106,"inclination_deg":53.1575,"raan_deg":217.5662,"arg_perigee_deg":83.4309,"mean_anomaly_deg":276.6835,"bstar":0.00093565,"rev_number":10411,"period_min":91.735532089979,"perigee_km":358.92484088904,"apogee_km":360.41524380681,"semimajor_km":6737.8070423479,"source":"CELESTRAK","updated_at":"2026-09-22T09:00:49.563671Z"}}}